Вернуться в каталог

USA 40 R/B DEB

LostHEO
NORAD 23371·DEBRIS·🇺🇸 United States

Запущен Aug 8, 1989 с Cape Canaveral Space Force Station

Loading…

Ближайшие Пролёты (ближайшие 24 часа)

TLE

УстаревшееSource: Space-Track

Эпоха: Feb 25, 2019, 20:11 UTC

1 23371U 89061AT  19056.84149841  .00002322  00000-0  10361-2 0  9992
2 23371  56.9693 178.7457 3130077 132.8336 258.2374  8.76462641  1312

Отслеживайте USA 40 R/B DEB в реальном времени с AllMySat

Download on the App Store